Location: Pradons
(44.4746°N, 4.3578°E)
Time: 08:50:16
(UTC+00:00)

Daily predictions for brighter satellites

Satellite Brightness Start Highest point End
(mag) Time Altitude Azimuth Time Altitude Azimuth Time Altitude Azimuth
Cosmos 2369 Rocket 3.1 18:45:33 10° NW 18:51:03 52° WSW 18:56:29 10° S
ARGOS Delta rocket 4.2 18:46:02 10° SSE 18:51:21 77° ENE 18:56:52 10° N
IRIDIUM 114 4.3 18:50:31 10° N 18:55:46 76° E 19:00:58 10° S
Cosmos 2058 Rocket 3.9 18:54:38 10° SSE 18:58:36 31° E 19:02:35 10° NNE
Cosmos 1726 Rocket 3.7 18:56:55 10° S 19:01:11 51° E 19:05:31 10° NNE
SL-08 RB Rocket 4.3 18:57:50 10° SE 19:02:04 39° ENE 19:06:23 10° N
STARLINK-1228 3.5 19:00:12 10° NW 19:03:01 40° NNE 19:05:31 12° E
Cosmos 1461 3.4 18:58:59 10° NNW 19:03:27 54° NE 19:08:01 10° SE
IRIDIUM 103 4.4 18:59:41 10° N 19:04:57 90° W 19:10:10 10° S
Cosmos 1726 2.6 19:02:10 10° SSW 19:05:52 67° W 19:09:36 10° N
SL-4 R/B 2.7 19:02:41 10° W 19:05:58 42° NNW 19:09:15 10° NE
Cosmos 921 Rocket 3.8 19:02:19 10° N 19:06:07 32° ENE 19:09:43 11° SE
Cosmos 1703 3.3 19:02:48 10° N 19:06:46 65° E 19:10:41 10° SSE
Meteor 2-10 4.4 19:02:15 10° SSW 19:07:44 78° W 19:13:27 10° N
Cosmos 1437 3.5 19:06:00 10° NNW 19:08:57 50° W 19:11:52 10° S
Cosmos 407 Rocket 3.4 19:04:07 10° S 19:09:11 64° ESE 19:14:16 10° NNE
Cosmos 2184 Rocket 4.0 19:03:02 10° N 19:09:20 88° E 19:15:33 10° S
Cosmos 1908 3.2 19:05:48 10° S 19:09:37 63° E 19:13:29 10° NNE
ADEOS Rocket 4.3 19:03:54 10° N 19:09:49 45° WNW 19:15:13 10° SW
Cosmos 1340 Rocket 3.2 19:06:17 10° SSE 19:10:05 41° E 19:13:53 10° NNE
Cosmos 1825 Rocket 3.6 19:05:43 10° N 19:10:07 85° W 19:14:28 10° S
FREGAT/IRIS 2.2 19:08:07 10° SSE 19:10:49 70° ENE 19:13:32 10° N
STARLINK-1201 4.0 19:08:58 10° NW 19:12:02 36° NNE 19:14:33 14° E
Cosmos 2228 3.0 19:07:46 10° S 19:12:04 80° E 19:16:26 10° N
Cosmos 1656 Rocket 3.9 19:07:17 10° NNW 19:12:56 72° WSW 19:18:27 10° SSE
Cosmos 1328 3.7 19:09:27 10° N 19:13:28 75° E 19:17:27 10° SSE
ATLAS 5 CENTAUR R/B 4.4 19:13:59 10° SSE 19:16:05 11° SE 19:18:47 10° SE
Cosmos 1943 4.2 19:10:43 10° SW 19:16:13 51° WNW 19:21:47 10° NNE
MOS 1 4.3 19:12:25 10° SSE 19:18:03 81° ENE 19:23:45 10° NNW
Resurs 01 Rocket 2.8 19:17:43 15° ESE 19:20:28 26° ENE 19:24:08 10° N
STARLINK-52 2.8 19:18:56 10° SW 19:22:08 87° SSE 19:25:21 10° ENE
MOS 1 Rocket 4.2 19:18:37 10° NNE 19:23:36 36° E 19:28:34 10° SSE
Nadezhda 1 Rocket 4.0 19:17:57 10° S 19:24:19 79° E 19:30:40 10° N
BREEZE M DEB (TANK) 3.1 19:22:14 10° SSW 19:24:55 36° SE 19:30:59 10° ENE
CZ-2C R/B 3.2 19:20:15 10° NNE 19:24:56 33° E 19:29:36 10° SSE
SPOT 3 Rocket 3.7 19:22:57 10° SSE 19:28:02 57° ENE 19:33:09 10° N
Cosmos 1023 Rocket 4.4 19:22:59 10° S 19:28:07 72° ESE 19:33:15 10° NNE
SL-24 R/B - RUBIN 2 4.4 19:23:03 10° SW 19:28:38 83° NW 19:34:58 10° NE
ARGOS 3.2 19:24:05 10° SSE 19:29:29 84° WSW 19:34:53 10° NNW
FALCON 9 DEB 3.2 19:26:58 10° WSW 19:30:28 81° NW 19:33:58 10° NE
Cosmos 1606 Rocket 4.2 19:27:25 10° SSW 19:31:48 59° W 19:36:14 10° N
Cosmos 2154 Rocket 4.0 19:25:59 10° N 19:32:22 85° E 19:38:41 10° S
GEOS 3 Rocket 4.1 19:27:55 10° SSE 19:32:56 57° SW 19:38:07 10° NW
Cosmos 1953 Rocket 3.8 19:28:43 10° NNW 19:33:12 73° W 19:37:40 10° S
Cosmos 1954 Rocket 4.1 19:29:21 10° S 19:34:25 52° ESE 19:39:29 10° NNE
USA 186 2.6 19:31:53 10° S 19:35:05 50° W 19:38:09 10° NNW
NOSS 3-4 (A) 4.0 19:28:04 10° NW 19:35:08 77° SW 19:42:32 11° SSE
NOSS 3-4 (C) 4.0 19:28:10 10° NW 19:35:14 77° SW 19:42:36 12° SSE
STARLINK-67 2.8 19:36:03 10° WNW 19:38:34 53° SW 19:39:24 33° SSE
Meteor 1-11 4.4 19:37:40 10° NNW 19:43:25 78° W 19:49:04 10° S
BREEZE-M DEB (TANK) 4.1 19:40:24 10° SSW 19:45:25 29° SSE 19:45:56 27° SE
STARLINK-1269 4.5 19:41:35 10° NW 19:45:32 40° NNE 19:47:44 22° E
STARLINK-1200 4.4 19:46:34 10° NW 19:50:32 42° NNE 19:52:31 25° E
STARLINK-1234 2.8 19:52:01 10° WNW 19:55:08 75° SW 19:55:47 51° SE
STARLINK-1192 4.3 19:51:32 10° NW 19:55:32 44° NNE 19:57:18 28° E
STARLINK-1209 2.9 19:52:29 10° WNW 19:55:36 70° SW 19:56:15 49° SSE
STARLINK-1233 2.8 19:52:52 10° NW 19:56:01 81° NNE 19:56:38 54° ESE
STARLINK-1212 2.8 19:53:20 10° NW 19:56:29 82° NNE 19:57:04 55° ESE
STARLINK-1105 2.8 19:53:46 10° NW 19:56:55 83° NNE 19:57:31 56° ESE
STARLINK-1206 2.7 19:54:15 10° NW 19:57:22 83° NNE 19:57:55 57° ESE
STARLINK-1247 2.7 19:54:42 10° NW 19:57:50 84° NNE 19:58:22 58° ESE
STARLINK-1227 2.8 19:55:06 10° NW 19:58:16 85° NE 19:58:47 58° ESE
STARLINK-1218 2.7 19:55:37 10° NW 19:58:44 86° NNE 19:59:13 60° ESE
Iridium 4 Rocket 3.9 19:55:22 10° NNE 19:59:00 28° E 19:59:06 28° E
STARLINK-1226 2.7 19:56:03 10° NW 19:59:11 86° NE 19:59:40 61° ESE
STARLINK-1254 2.8 19:56:28 10° NW 19:59:37 87° NNE 20:00:06 61° ESE
Cosmos 1980 Rocket 4.3 19:57:03 10° NNE 19:59:40 13° NE 20:02:02 11° ENE
STARLINK-1215 2.7 19:56:58 10° NW 20:00:06 88° NE 20:00:32 63° ESE
STARLINK-1231 2.7 19:57:25 10° NW 20:00:33 89° NE 20:00:58 64° ESE
STARLINK-1244 4.2 19:56:36 10° NW 20:00:37 47° NNE 20:02:10 31° E
USA 234 3.7 19:55:07 10° ENE 20:01:00 35° SE 20:06:51 10° SSW
STARLINK-1232 2.7 19:58:19 10° WNW 20:01:27 90° W 20:01:50 66° SE
STARLINK-1217 2.7 19:58:46 10° WNW 20:01:54 89° SW 20:02:16 67° SE
Abrixas rocket 1.7 19:58:59 10° WNW 20:01:57 77° SSW 20:02:07 72° SSE
STARLINK-1208 2.7 19:59:11 10° WNW 20:02:20 88° SW 20:02:43 67° SE
Cosmos 1892 3.8 19:58:55 10° NNE 20:02:13 28° ENE 20:02:13 28° ENE
STARLINK-1229 2.7 19:59:39 10° WNW 20:02:47 88° SW 20:03:07 69° SE
H-2A R/B 3.6 19:58:25 10° SSW 20:03:07 34° W 20:07:44 10° NNW
STARLINK-1271 2.7 20:00:07 10° WNW 20:03:15 87° SSW 20:03:34 69° SE
STARLINK-1270 2.7 20:00:34 10° WNW 20:03:43 86° SSW 20:04:00 71° SE
STARLINK-1154 2.7 20:01:01 10° WNW 20:04:10 85° SSW 20:04:26 71° SE
ATLAS 5 CENTAUR R/B 2.7 20:00:10 10° WSW 20:04:10 44° NW 20:08:41 10° NNE
STARLINK-1197 2.7 20:01:55 10° WNW 20:05:03 84° SSW 20:05:18 73° SE
STARLINK-1189 2.7 20:02:22 10° WNW 20:05:29 83° SW 20:05:43 74° SSE
STARLINK-1138 4.1 20:01:29 10° NW 20:05:32 50° NNE 20:06:52 35° ENE
STARLINK-1198 2.7 20:02:50 10° WNW 20:05:57 82° SW 20:06:10 74° SSE
STARLINK-1188 2.7 20:03:16 10° WNW 20:06:23 82° SW 20:06:35 75° SSE
Cosmos 1825 4.5 20:04:50 10° NE 20:05:39 12° NE 20:05:39 12° NE
STARLINK-1235 3.0 20:03:56 10° WNW 20:07:04 62° SW 20:07:18 59° S
ATLAS 2AS CENTAUR R/B 3.6 20:00:03 10° NW 20:07:07 46° WSW 20:13:00 13° S
STARLINK-1187 2.8 20:04:20 10° WNW 20:07:30 70° SW 20:07:42 67° S
STARLINK-1199 2.7 20:05:13 10° WNW 20:08:22 78° SSW 20:08:31 75° S
STARLINK-1191 2.7 20:05:39 10° WNW 20:08:48 78° SW 20:08:56 75° S
STARLINK-1210 2.7 20:06:07 10° WNW 20:09:16 77° SW 20:09:23 75° S
STARLINK-1221 2.8 20:06:34 10° WNW 20:09:43 76° SW 20:09:49 75° SSW
STARLINK-1219 2.8 20:07:01 10° WNW 20:10:10 75° SW 20:10:15 74° SSW
COSMOS 2455 3.0 20:04:18 10° NW 20:10:19 72° WSW 20:13:57 25° SSE
STARLINK-1143 4.0 20:06:27 10° NW 20:10:31 53° NNE 20:11:39 39° ENE
STARLINK-1222 2.8 20:07:28 10° WNW 20:10:36 75° SW 20:10:40 74° SSW
STARLINK-1211 2.8 20:07:56 10° WNW 20:11:04 74° SW 20:11:07 74° SSW
Cosmos 1140 Rocket 4.4 20:06:19 10° SW 20:11:22 50° WNW 20:16:24 10° NNE
STARLINK-1214 2.8 20:08:22 10° WNW 20:11:31 73° SW 20:11:33 73° SSW
STARLINK-1245 2.8 20:08:51 10° WNW 20:11:57 72° SW 20:11:57 72° SW
STARLINK-1238 2.9 20:09:16 10° WNW 20:12:24 72° SW 20:12:24 72° SW
STARLINK-1205 2.9 20:10:12 10° WNW 20:13:16 70° SW 20:13:16 70° SW
STARLINK-1204 2.9 20:10:40 10° WNW 20:13:42 69° SW 20:13:42 69° SW
ERBS 2.8 20:10:57 10° NW 20:14:13 45° NE 20:14:20 45° NE
STARLINK-1241 3.9 20:11:28 10° NW 20:15:34 57° NNE 20:16:28 45° ENE
IGS 5A 4.3 20:20:27 34° ENE 20:20:27 34° ENE 20:24:01 10° N
STARLINK-1239 3.8 20:16:25 10° NW 20:20:32 61° NNE 20:21:14 51° ENE
Cosmos 1300 3.4 20:18:03 11° SSW 20:21:34 54° W 20:25:20 10° N
Resurs 1-3 4.3 20:18:54 21° S 20:21:40 52° W 20:25:58 10° NNW
ATLAS CENTAUR R/B 3.3 20:19:24 10° N 20:21:52 16° NE 20:22:10 16° NE
SAR-Lupe-2 3.9 20:18:20 10° NNE 20:21:14 51° NE 20:21:14 51° NE
Spot 2 Rocket 3.6 20:22:15 44° ESE 20:23:32 58° ENE 20:28:33 10° N
STARLINK-1240 3.7 20:21:24 10° NW 20:25:32 65° NNE 20:26:01 58° ENE
Cosmos 1850 Rocket 3.9 20:24:22 35° S 20:26:21 60° ESE 20:31:28 10° NNE
Cosmos 841 Rocket 4.4 20:24:13 10° N 20:29:00 33° ENE 20:29:32 32° ENE
Terra 3.4 20:29:53 20° ENE 20:29:53 20° ENE 20:33:04 10° NNE
In-Cosmos 22 Rocket 4.2 20:24:28 10° N 20:30:21 87° E 20:32:45 38° SSE
STARLINK-1216 3.6 20:26:21 10° NW 20:30:30 70° NNE 20:30:47 66° ENE
Cosmos 2082 Rocket 4.3 20:34:09 11° ENE 20:34:09 11° ENE 20:34:28 10° NE
SPOT 5 4.0 20:31:40 24° NE 20:31:40 24° NE 20:34:35 10° N
Meteor 2-10 Rocket 4.1 20:33:52 39° E 20:33:52 39° E 20:38:26 10° NNE
MetOp-B 4.0 20:32:14 45° SSE 20:33:56 83° ENE 20:39:20 10° NNW
STARLINK-1237 3.5 20:31:18 10° NW 20:35:28 75° NNE 20:35:33 74° NE
Cosmos 1833 Rocket 3.9 20:39:01 26° ENE 20:39:01 26° ENE 20:41:58 10° NE
STARLINK-1202 3.6 20:36:18 10° NW 20:40:21 79° N 20:40:21 79° N
Cosmos 468 Rocket 3.8 20:36:28 10° NNW 20:41:40 86° ENE 20:42:31 63° SSE
Cosmos 192 4.4 20:37:26 10° NNW 20:42:24 76° WSW 20:43:22 57° S
SL-4 R/B 3.5 20:43:15 10° WNW 20:46:07 24° N 20:46:33 23° NNE
ERS-1 Rocket 3.3 20:47:01 47° ENE 20:47:01 47° ENE 20:51:45 10° N
Cosmos 1408 4.0 20:44:47 10° N 20:46:55 31° NNE 20:46:55 31° NNE
STARLINK-1246 3.8 20:46:15 10° WNW 20:49:54 68° WNW 20:49:54 68° WNW
RESURS DK-1 3.1 20:46:57 10° NNW 20:50:15 44° NNE 20:50:15 44° NNE
BREEZE M DEB (TANK) 3.5 20:46:17 10° W 20:52:58 53° NNW 20:53:25 49° N
Cosmos 1570 Rocket 4.0 20:49:02 10° NNW 20:54:22 64° ENE 20:54:32 63° ENE
STARLINK-1224 4.0 20:51:16 10° WNW 20:54:43 60° WNW 20:54:43 60° WNW
Okean 3 Rocket 4.3 20:51:12 10° N 20:54:34 43° NNE 20:54:34 43° NNE
Meteor 2-12 Rocket 4.4 20:49:48 10° N 20:55:55 84° W 20:57:32 52° S
COSMOS 2406 3.0 20:54:52 46° SSW 20:56:38 83° ESE 21:02:23 10° NNE
Resurs 01 Rocket 3.1 20:55:17 25° SW 20:56:50 32° W 21:00:50 10° NNW
Cosmos 2058 3.5 20:53:18 10° NNW 20:57:19 51° W 20:57:23 51° W
STARLINK-1203 4.2 20:53:37 10° WNW 20:57:04 56° W 20:57:04 56° W
CZ-4C R/B 3.6 20:52:42 10° NNW 20:59:21 42° NE 21:01:49 34° E
STARLINK-1225 4.3 20:56:15 10° WNW 20:59:30 52° WNW 20:59:30 52° WNW
CZ-2C R/B 4.2 21:00:35 10° N 21:05:11 33° WNW 21:09:48 10° SW
Cosmos 2151 3.8 21:04:34 10° N 21:07:34 46° N 21:07:34 46° N
Cosmos 1697 Rocket 2.7 21:08:58 10° NNW 21:14:29 67° NE 21:14:29 67° NE
Cosmos 2369 3.8 21:09:07 10° NNW 21:14:33 65° NE 21:14:33 65° NE
Landsat 7 4.5 21:25:10 49° W 21:25:10 49° W 21:29:30 10° NNW
Cosmos 1455 4.3 21:31:25 26° NNW 21:31:25 26° NNW 21:33:23 10° N
SPOT 1/Viking Rocket 4.0 21:30:44 55° W 21:30:44 55° W 21:35:45 10° NNW
Cosmos 1763 Rocket 4.4 21:26:49 10° NW 21:31:31 41° W 21:31:31 41° W
Cosmos 1656 4.2 21:27:25 10° NW 21:32:50 52° WSW 21:32:50 52° WSW
Cosmos 540 Rocket 3.9 21:30:08 10° NNW 21:34:20 59° NW 21:34:20 59° NW
SL-16 R/B 3.9 21:32:00 10° N 21:36:11 21° NE 21:36:11 21° NE
Cosmos 2208 Rocket 4.5 21:31:40 10° NNW 21:36:03 58° WNW 21:36:03 58° WNW
Nadezhda 3 Rocket 4.0 21:41:26 70° WSW 21:41:48 72° W 21:48:06 10° N
Cosmos 2322 Rocket 4.0 21:39:05 10° N 21:43:04 20° NE 21:43:04 20° NE
USA 234 3.3 21:37:48 10° NE 21:44:20 75° NW 21:50:51 10° WSW
Cosmos 1980 Rocket 2.7 21:39:15 10° NNW 21:43:48 53° NNE 21:43:48 53° NNE
Meteor 2-3 Rocket 4.2 21:50:46 10° NNW 21:55:21 58° NNW 21:55:21 58° NNW
ATLAS CENTAUR R/B 4.0 21:57:26 10° NW 21:58:21 16° NW 21:58:21 16° NW
Terra 3.4 22:08:45 33° NW 22:08:45 33° NW 22:11:37 10° NNW
Mayak 1.3 22:04:05 10° NNE 22:04:58 16° NNE 22:04:58 16° NNE
Cosmos 1934 Rocket 4.3 22:06:11 10° NNW 22:11:27 60° NW 22:11:27 60° NW
Cosmos 2082 Rocket 3.2 22:15:56 42° N 22:15:56 42° N 22:19:45 10° NNE
Cosmos 1833 Rocket 3.8 22:20:38 38° WNW 22:20:46 39° NW 22:26:03 10° NNE
Cosmos 2344 4.3 22:26:43 10° NW 22:36:33 88° SW 22:38:34 68° SSE
CZ-4C R/B 3.4 22:41:06 10° NW 22:47:00 53° W 22:47:00 53° W
SL-16 R/B 3.8 23:15:16 10° NNW 23:18:02 30° NNW 23:18:02 30° NNW
Cosmos 2360 Rocket 3.8 23:16:09 10° NNW 23:19:17 31° N 23:19:17 31° N
Cosmos 2322 Rocket 3.9 23:22:13 10° NNW 23:24:52 29° NNW 23:24:52 29° NNW
Cosmos 2333 Rocket 3.9 23:38:49 10° N 23:42:25 28° NNE 23:42:25 28° NNE
SL-16 R/B 4.4 23:48:42 20° ENE 23:49:38 20° ENE 23:53:59 10° NNE
